FW9692 Weather Reports


time (UTC)temp
F
wind
direction
speed
knots
gust
knots
rain 1hr
in
rain 24hr
in
rain mn
in
humidity
%
barometer
mb
20260503224500 77 30 2.6 4.3 0.00 0.00 0.00 36 1004.3
20260503223059 77 139 7.8 11.3 0.00 0.00 0.00 35 1004.7
20260503221503 76 186 4.3 12.2 0.00 0.00 0.00 36 1004.9
20260503220005 77 182 7.0 8.7 0.00 0.00 0.00 35 1005.1
20260503214558 76 155 3.5 9.6 0.00 0.00 0.00 36 1005.4
20260503213107 75 131 3.5 9.6 0.00 0.00 0.00 36 1005.9
20260503211547 75 140 7.0 10.4 0.00 0.00 0.00 37 1006.2
20260503210046 75 232 2.6 7.0 0.00 0.00 0.00 37 1006.5
20260503204540 74 173 4.3 12.2 0.00 0.00 0.00 38 1006.8
20260503203037 73 189 4.3 9.6 0.00 0.00 0.00 38 1007.1
20260503201541 73 126 7.0 12.2 0.00 0.00 0.00 38 1007.3
20260503200042 72 223 7.0 10.4 0.00 0.00 0.00 40 1007.7
20260503194533 72 194 7.0 13.9 0.00 0.00 0.00 40 1008.1
20260503193034 71 161 7.0 9.6 0.00 0.00 0.00 42 1008.3
20260503191526 70 178 8.7 15.6 0.00 0.00 0.00 44 1008.6
20260503190027 70 137 6.1 13.0 0.00 0.00 0.00 45 1008.7
20260503184520 70 133 7.8 13.9 0.00 0.00 0.00 46 1009.4
20260503183021 69 165 7.8 13.9 0.00 0.00 0.00 46 1009.7
20260503181521 69 111 4.3 10.4 0.00 0.00 0.00 48 1009.8
20260503180020 68 137 4.3 13.9 0.00 0.00 0.00 49 1010.2
20260503174515 67 137 7.8 11.3 0.00 0.00 0.00 51 1010.2
20260503173014 67 187 3.5 9.6 0.00 0.00 0.00 54 1010.7
20260503171504 66 111 4.3 10.4 0.00 0.00 0.00 54 1011.2
20260503054512 60 149 12.2 15.6 0.00 0.00 0.00 60 1012.5
20260503053004 60 144 10.4 13.0 0.00 0.00 0.00 59 1012.5
20260503050022 61 134 6.1 7.8 0.00 0.00 0.00 60 1013.0
20260503044504 61 115 6.1 7.8 0.00 0.00 0.00 57 1013.0
20260503043107 61 130 6.1 8.7 0.00 0.00 0.00 58 1013.0
20260503040054 62 131 7.8 9.6 0.00 0.00 0.00 57 1012.7
20260503034554 62 131 7.0 8.7 0.00 0.00 0.00 56 1012.7
20260503033112 62 131 6.1 7.8 0.00 0.00 0.00 55 1012.6
20260503024610 63 123 5.2 7.8 0.00 0.00 0.00 53 1012.0
20260503023047 63 115 4.3 7.0 0.00 0.00 0.00 54 1011.9
20260503020046 64 131 6.1 8.7 0.00 0.00 0.00 49 1011.7
20260503014541 64 121 5.2 8.7 0.00 0.00 0.00 49 1011.5
20260503013033 65 101 6.1 8.7 0.00 0.03 0.00 47 1011.5
20260503010023 65 138 8.7 11.3 0.00 0.03 0.00 45 1011.5
20260503004519 66 123 7.0 11.3 0.00 0.03 0.00 45 1011.5
20260503003014 66 147 6.1 11.3 0.00 0.07 0.00 44 1011.8
20260503000016 65 118 2.6 11.3 0.00 0.07 0.00 45 1011.8
20260502234512 65 138 6.1 11.3 0.00 0.07 0.00 45 1011.7
20260502233007 65 126 5.2 10.4 0.00 0.07 0.00 45 1011.7
20260502230007 65 134 7.0 13.0 0.00 0.07 0.00 46 1011.9